Location: Chippewa Lake
(41.0698°N, 81.9010°W)
Time: 21:58:13
(UTC+00:00)

Cosmos 1943 Rocket - Pass Details

Date: 09 May 2021
Orbit: 813 x 842 km, 71.0° (Epoch: 16 June)

Event Time Altitude Azimuth Distance (km) Brightness Sun altitude
Exits shadow 04:16:22 35° 61° (ENE) 1,320 3.2 -29.4°
Drops below altitude 10° 04:19:56 10° 35° (NE) 2,447 5.0 -29.7°
Sets 04:22:27 0° 30° (NNE) 3,381 5.9 -29.8°
